Location: Caltech
(34.1382°N, 118.1253°W)
Time: 06:43:20
(UTC-07:00)

SL-08 RB Rocket - Visible Passes

Search period start: 16 April 2014 00:00
Search period end: 26 April 2014 00:00
Orbit: 650 x 689 km, 98.1° (Epoch: 15 April)

Date Brightness Start Highest point End Pass type
(mag) Time Alt. Az. Time Alt. Az. Time Alt. Az.
16 Apr 5.9 21:30:50 13° NE 21:30:50 13° NE 21:31:46 10° NNE visible
16 Apr 6.6 23:09:02 14° NW 23:09:02 14° NW 23:09:43 10° NNW visible
17 Apr 5.7 22:03:49 21° NNE 22:03:49 21° NNE 22:05:26 10° N visible
18 Apr 5.9 22:36:47 22° NNW 22:36:47 22° NNW 22:38:21 10° NNW visible
19 Apr 5.8 21:31:34 15° NE 21:31:34 15° NE 21:32:48 10° NNE visible
19 Apr 6.5 23:09:46 15° NW 23:09:46 15° NW 23:10:41 10° NNW visible
20 Apr 5.5 22:04:32 23° NNE 22:04:32 23° NNE 22:06:26 10° N visible
21 Apr 5.7 22:37:31 24° NNW 22:37:31 24° NNW 22:39:20 10° NNW visible
22 Apr 5.7 21:32:17 16° NE 21:32:17 16° NE 21:33:49 10° NNE visible
22 Apr 6.3 23:10:29 17° NW 23:10:29 17° NW 23:11:38 10° NNW visible
23 Apr 5.3 22:05:16 25° NNE 22:05:16 25° NNE 22:07:25 10° N visible
24 Apr 5.6 22:38:14 27° NNW 22:38:14 27° NNW 22:40:18 10° NNW visible
25 Apr 5.6 21:33:00 17° NE 21:33:00 17° NE 21:34:50 10° NNE visible
25 Apr 6.2 23:11:12 18° NW 23:11:12 18° NW 23:12:35 10° NNW visible
